Regional Weather Roundup
Issued by NWS

Home | Current Version | Previous Version | Text Only | Print | Product List | Glossary Off
Versions: 1 2 3 4 5 6 7 8 9 10 11 12 13 14 15 16 17 18 19 20 21 22 23 24 25 26 27 28 29 30 31 32 33 34 35 36 37 38 39 40 41 42 43 44 45 46 47 48 49 50

837
ASUS43 KDMX 261408
RWRIA

WEATHER ROUNDUP FOR IOWA
NATIONAL WEATHER SERVICE DES MOINES IA
900 AM CDT FRI AUG 26 2016

NOTE: "FAIR" INDICATES FEW OR NO CLOUDS BELOW 12,000 FEET WITH NO
SIGNIFICANT WEATHER AND/OR OBSTRUCTIONS TO VISIBILITY.

* - THESE STATIONS ARE NOT NWS STATIONS...THUS NOT UNDER NWS
QUALITY CONTROL.  THEY ALSO DO NOT REPORT WEATHER SUCH
AS PRECIPITATION OR FOG.

IAZ001>003-012>014-020>022-031>034-043>046-261500-
   NORTHWEST IOWA

CITY           SKY/WX    TMP DP  RH WIND       PRES   REMARKS
CARROLL *      CLOUDY    61  59  94 CALM      30.18S
CHEROKEE *     PTSUNNY   57  57 100 CALM      30.19S
DENISON *      CLOUDY    61  59  94 E3        30.16S FOG
LE MARS *      PTSUNNY   57  55  94 CALM      30.19S
ORANGE CITY *  CLOUDY    59  55  88 E3        30.19S
SHELDON *      CLOUDY    59  59 100 E6        30.19R
SIOUX CITY     CLOUDY    61  57  87 N3        30.17F
SPENCER        CLOUDY    59  56  89 E5        30.20S
STORM LAKE *   CLOUDY    61  59  94 E3        30.19F
$$

IAZ055>058-069>071-079>083-090>094-261500-
   SOUTHWEST IOWA

CITY           SKY/WX    TMP DP  RH WIND       PRES   REMARKS
ATLANTIC *     CLOUDY    63  59  88 N3        30.18S
AUDUBON *      CLOUDY    63  59  88 E3        30.20S
CLARINDA *       N/A     63  61  94 MISG      30.18F
COUNCIL BLFS * CLOUDY    63  59  88 E12       30.16F
CRESTON *      LGT RAIN  63  61  94 NE6       30.18F
HARLAN  *      CLOUDY    61  59  94 CALM      30.21S
LAMONI         LGT RAIN  63  61  93 NE5       30.18R
RED OAK *      CLOUDY    64  61  88 E7        30.16F
SHENANDOAH *   CLOUDY    64 N/A N/A E9        30.15F HAZE
$$

IAZ047>049-059>061-072>074-084-261500-
   CENTRAL IOWA

CITY           SKY/WX    TMP DP  RH WIND       PRES   REMARKS
AMES           CLOUDY    62  62 100 SE5       30.20R
ANKENY *         N/A    N/A N/A N/A MISG        N/A
BOONE *        CLOUDY    63  61  94 SE8       30.19R
CHARITON *     LGT RAIN  64  64 100 MISG      30.17S
DES MOINES     CLOUDY    66  60  81 SE5       30.18S
GRINNELL*      CLOUDY    64  60  87 E3        30.21R
KNOXVILLE *    LGT RAIN  64  63  94 E5        30.17F
MARSHALLTOWN   CLOUDY    62  61  96 E6        30.20R
NEWTON *       CLOUDY    64  63  94 CALM      30.19R
PERRY *        CLOUDY    63  62  97 E3        30.19S
$$

IAZ004>006-015-016-023>025-035-036-261500-
   NORTH CENTRAL IOWA

CITY           SKY/WX    TMP DP  RH WIND       PRES   REMARKS
ALGONA *       CLOUDY    63  57  82 CALM      30.21S
ESTHERVILLE    MOSUNNY   59  58  96 E5        30.21R
FORT DODGE *   CLOUDY    59  55  88 E5        30.20S
MASON CITY     CLOUDY    61  57  87 E3        30.23R
FOREST CITY *    N/A    N/A N/A N/A MISG        N/A
WEBSTER CITY * CLOUDY    63  61  94 SE6       30.18R
IOWA FALLS *     N/A     63  60  88 E5        30.21S
$$

IAZ007>011-017>019-026>030-037>042-050>054-066-261500-
   NORTHEAST IOWA

CITY           SKY/WX    TMP DP  RH WIND       PRES   REMARKS
CEDAR RAPIDS   PTSUNNY   65  63  93 NE7       30.19S
CHARLES CITY * MOSUNNY   61  61 100 CALM      30.21F
CLINTON *      CLOUDY    67  64  90 NE6       30.20R
DECORAH *      CLOUDY    61  57  88 CALM      30.21R
DUBUQUE        CLOUDY    64  61  90 N5        30.21R
MONTICELLO *   CLOUDY    63  61  94 CALM      30.19F
WATERLOO       CLOUDY    62  58  86 CALM      30.19S
$$

IAZ064-065-067-068-078-261500-
   EAST CENTRAL IOWA

CITY           SKY/WX    TMP DP  RH WIND       PRES   REMARKS
DAVENPORT      CLOUDY    66  62  87 NE9       30.18S
IOWA CITY      CLOUDY    68  60  75 NE5       30.20R
MT. PLEASANT * CLOUDY    70  68  95 E8        30.18S
MUSCATINE *    PTSUNNY   68  63  83 CALM      30.19R
QUAD CITIES    CLOUDY    69  61  75 NE8       30.16F
$$

IAZ062-063-075>077-085>089-095>099-261500-
   SOUTHEAST IOWA

CITY           SKY/WX    TMP DP  RH WIND       PRES   REMARKS
BURLINGTON     CLOUDY    70  67  90 NE9       30.17S
FAIRFIELD *    CLOUDY    68  64  88 NE9       30.17S
FORT MADISON * CLOUDY    68  64  88 NE5       30.17F
KEOKUK *       CLOUDY    70  66  88 NE8       30.15F
OSKALOOSA *      N/A     64  63  97 N5        30.18R
CENTERVILLE *    N/A     66  64  94 NE5       30.18S
OTTUMWA        PTSUNNY   66  63  90 NE5       30.18R
WASHINGTON *   MOSUNNY   66  63  88 NE8       30.18F
$$

ABBREVIATIONS USED IN REMARKS
   TC - TEMPERATURES IN CELSIUS
  WCI - WIND CHILL INDEX
   HX - HEAT INDEX
  VSB - VISIBILITY
$$





USA.gov is the U.S. government's official web portal to all federal, state and local government web resources and services.